Location: Clifton Park
(41.4873°N, 81.8024°W)
Time: 15:39:36
(UTC+00:00)

CENTAUR R/B - Pass Details

Date: 21 January 2020
Orbit: 766 x 1422 km, 63.5° (Epoch: 19 February)

Event Time Altitude Azimuth Distance (km) Brightness Sun altitude
Exits shadow 10:52:17 13° 332° (NNW) 3,052 4.7 -21.5°
Maximum altitude 10:59:35 57° 49° (NE) 1,579 3.7 -20.2°
Drops below altitude 10° 11:08:09 10° 127° (SE) 3,511 6.3 -18.6°
Sets 11:11:12 0° 131° (SE) 4,488 7.0 -18.0°
